吉林一号03星 (JILIN-1 03)

导读

JILIN-1-03是中国于2017年1月9日发射的商业遥感卫星,隶属于吉林一号低轨遥感卫星星座,目前仍在轨运行。该卫星由长光卫星技术有限公司研制,运行于近地低轨道,具备高分辨率成像能力,可为农林资源调查、环境监测、土地规划、地理测绘、灾害预警等领域提供精准遥感数据服务,推动了中国商业遥感应用发展,助力各行各业数字化与精细化管理。

Basic Information
目录编号:
41914
目录名称:
JILIN-1-03
国际标识:
2017-002B
轨道中心:
EARTH
卫星名称:
吉林一号03星
卫星全名:
吉林一号03星 (JILIN-1 03)
卫星状态:
在轨 (已飞行3486 天)
发射日期:
2017-01-09 UTC
国别 :
中国 (CN)
星等 :
--
Orbit Information
数据来源 国际轨道数据 AOE轨道数据
星历时间 2026-07-27T21:59:26+0800
9小时前
查看轨道信息
2026-07-25T18:00:00+0800
2天前
查看轨道信息
半长轴 6816.84km 6817.03km
偏心率 0.0006809 0.0007048
轨道倾角 97.195° 97.196°
近地点辐角 45.550° 52.828°
升交点赤经 215.125° 212.990°
平近点角 314.631° 166.013°
近地点 434.061km 434.088km
远地点 443.345km 443.698km
周期 93.354分钟 93.358分钟
每日圈数 15.425107 15.42446
Detailed Information
平衡模式:
三轴稳定
覆盖范围:
全球
运营商:
长光卫星技术股份有限公司
运营商所在国:
中国
制造商(研发单位):
长光卫星技术股份有限公司
制造商所在国:
中国
使用方式:
暂无
Satellite Introduction
“吉林一号”卫星星座(JiLin-1)是长光卫星技术有限公司在建的核心工程,是我国目前最大的商业遥感卫星星座,具备了较强的服务能力。该卫星仍在工作。
2D Orbit Map
3D Orbit Map
Orbit Altitude Analysis Chart
Orbit Inclination Analysis Chart
Orbit Comprehensive Analysis Chart
View Comprehensive Chart